Preview of NWS' New Version of Forecast
This preview is not operational and should not be used for support decisions.

Regional Weather Roundup (RWR)

Issued by National Weather Service (NWS)

                            
000
ASUS43 KBIS 222310
RWRND 

NORTH DAKOTA REGIONAL WEATHER ROUNDUP
NATIONAL WEATHER SERVICE BISMARCK ND
600 PM CDT MON JUL 22 2019

NOTE: "FAIR" INDICATES FEW OR NO CLOUDS BELOW 12,000 FEET WITH NO
SIGNIFICANT WEATHER AND/OR OBSTRUCTIONS TO VISIBILITY.


NDZ001>003-009>011-017-230000-
NORTHWEST NORTH DAKOTA
  
CITY           SKY/WX    TMP DP  RH WIND       PRES   REMARKS
WILLISTON      SUNNY     84  51  31 SE9       30.24F                  
MINOT          MOSUNNY   83  52  34 VRB3      30.24F                  
MINOT AFB      SUNNY     80  53  37 CALM      30.23F                  
$$
 
NDZ018>021-031>035-040>046-230000-
SOUTHWEST NORTH DAKOTA
  
CITY           SKY/WX    TMP DP  RH WIND       PRES   REMARKS
BISMARCK       SUNNY     79  52  38 E7        30.27F                  
DICKINSON      SUNNY     78  51  38 S7        30.26F                  
GARRISON         N/A     78  51  38 SE3       30.26F                  
HETTINGER ARPT MOSUNNY   78  54  43 SE9       30.28F                  
$$
 
NDZ004>008-012>016-024-026-027-054-230000-
NORTHEAST NORTH DAKOTA
  
CITY           SKY/WX    TMP DP  RH WIND       PRES   REMARKS
GRAND FORKS    MOSUNNY   81  55  40 W8        30.21F                  
GRND FRKS AFB  MOSUNNY   79  56  44 NW5       30.22F                  
DEVILS LAKE    MOSUNNY   78  53  41 NW9       30.26F                  
$$
 
NDZ022-023-025-028>030-036>039-047>053-230000-
SOUTHEAST NORTH DAKOTA
  
CITY           SKY/WX    TMP DP  RH WIND       PRES   REMARKS
FARGO          MOSUNNY   79  52  38 N6        30.23F                  
JAMESTOWN      SUNNY     77  57  50 MISG      30.26F                  
$$